sat.trackr.live / text

‹ back to catalog

STARLINK-32172

NORAD 61518 · 2024-183K

PAYLOAD ACTIVE UNKNOWN

§ Identity

Operator
Country
US
Launch date
2024-10-15
Launch site
AFETR
Launch vehicle
Mass (kg)
RCS (m²)

Purposes: comms

External: N2YO · Heavens-Above · Gunter

§ Orbital elements

Epoch: 2026-05-25T05:04:49.878624Z

Period
94.01 min
Inclination
53.1601°
Eccentricity
0.0001198
Mean motion
15.31702817 rev/d
Perigee alt
469.9 km
Apogee alt
471.6 km
Semi-major
6,848.9 km
B*
2.2698e-5
RAAN
146.6258°
Arg perigee
76.0010°
Mean anomaly
284.1124°
Rev number
9,137

§ Raw data

STARLINK-321721 61518U 24183K   26145.21168841  .00000339  00000+0  22698-4 0  99932 61518  53.1601 146.6258 0001198  76.0010 284.1124 15.31702817 91371

JSON: /api/v1/satellites/61518 · /tle

For live sub-satellite position, see the globe view (requires WebGL).

§ Visibility from observer

Set your observer location to see the next 7 days of passes ≥ 10°. The values pass through the URL so the page stays shareable.

No JS? Fill the form by hand. The geolocation button needs JavaScript.